Back to catalog

ST 1

AliveCommunicationsGEO
NORAD 25460·PAYLOAD·🇸🇬 Singapore🇹🇼 Taiwan

Launched Aug 25, 1998 from Guiana Space Centre

Loading…

TLE

FreshSource: Space-Track

Epoch: Sep 14, 2026, 12:19 UTC

1 25460U 98049A   26257.51386199  .00000021  00000-0  00000-0 0  9994
2 25460  11.2458  44.5153 0009173 320.3671 224.3887  0.98745885 45955

Track ST 1 in real time with AllMySat

Download on the App Store